EDT,Max TemperatureF,Mean TemperatureF,Min TemperatureF,Max Dew PointF,MeanDew PointF,Min DewpointF,Max Humidity, Mean Humidity, Min Humidity, Max Sea Level PressureIn, Mean Sea Level PressureIn, Min Sea Level PressureIn, Max VisibilityMiles, Mean VisibilityMiles, Min VisibilityMiles, Max Wind SpeedMPH, Mean Wind SpeedMPH, Max Gust SpeedMPH,PrecipitationIn, CloudCover, Events, WindDirDegrees
2013-4-1,43,34,26,40,26,13,100,73,37,30.00,29.83,29.59,10,8,0,16,7,29,0.02,6,Fog-Rain-Snow,286
2013-4-2,37,29,23,27,18,11,93,64,38,30.17,30.09,30.00,10,8,0,14,7,30,0.02,5,Fog-Snow,286
2013-4-3,37,30,23,21,16,13,74,57,40,30.43,30.29,30.16,10,10,3,20,7,29,0.00,5,Snow,302
2013-4-4,57,39,21,20,17,11,85,49,17,30.40,30.21,29.97,10,10,10,10,4,20,0.00,0,,168
2013-4-5,48,39,27,26,20,14,63,50,38,30.19,30.01,29.91,10,10,10,22,8,30,0.00,4,,315
2013-4-6,52,36,19,19,16,13,81,46,21,30.37,30.25,30.09,10,10,10,12,4,16,0.00,1,,137
2013-4-7,73,59,46,44,31,17,68,39,28,30.07,29.91,29.77,10,10,10,20,12,32,0.00,4,,203
2013-4-8,71,52,35,47,38,31,85,61,31,30.15,30.01,29.82,10,10,10,14,5,,0.00,4,Rain,129
2013-4-9,68,57,46,49,44,41,100,69,37,30.15,30.00,29.83,10,9,2,21,8,37,0.46,5,Rain-Thunderstorm,309
2013-4-10,51,46,41,49,45,39,100,96,86,30.04,29.96,29.83,10,7,1,15,6,26,0.69,8,Rain-Thunderstorm,318
2013-4-11,41,38,35,39,33,30,93,83,70,30.14,30.04,29.93,10,10,4,15,5,20,0.05,8,Rain,317
2013-4-12,57,46,37,48,40,33,93,80,66,29.93,29.71,29.55,10,9,4,18,8,29,0.34,8,Rain,171
2013-4-13,48,42,39,37,34,29,83,71,50,30.00,29.88,29.80,10,10,7,15,3,22,0.01,8,Rain,208
2013-4-14,51,44,37,32,29,26,79,62,46,30.22,30.12,29.96,10,10,10,13,5,,0.00,6,Rain,300
2013-4-15,73,56,39,46,39,28,70,52,34,30.19,30.13,30.05,10,10,10,17,10,30,0.00,3,,164
2013-4-16,72,60,50,56,49,37,87,69,57,30.26,30.11,30.01,10,10,9,17,11,25,0.09,7,Rain,219
2013-4-17,61,48,36,37,33,31,82,56,39,30.38,30.32,30.23,10,10,10,14,6,,0.00,1,,335
2013-4-18,75,60,46,56,48,33,73,59,47,30.24,29.98,29.80,10,10,10,29,14,39,0.00,2,,155
2013-4-19,75,58,42,59,46,31,86,69,50,29.82,29.66,29.42,10,10,6,22,14,34,0.07,5,Rain,217
2013-4-20,44,38,33,33,26,19,85,60,42,30.45,30.08,29.81,10,9,2,17,7,31,0.00,7,Rain-Snow,287
2013-4-21,48,38,28,28,24,21,89,60,36,30.71,30.62,30.48,10,10,10,13,3,,0.00,2,,329
2013-4-22,60,46,32,29,25,20,73,47,25,30.63,30.51,30.39,10,10,7,20,8,28,0.00,0,,154
2013-4-23,66,52,37,35,32,28,70,47,30,30.40,30.21,30.03,10,10,10,15,9,18,0.00,0,,142
2013-4-24,70,54,39,53,41,31,77,63,49,30.07,29.87,29.67,10,10,7,16,9,33,0.09,6,Rain,182
2013-4-25,59,46,35,37,30,23,82,57,26,30.35,30.21,30.06,10,10,10,12,6,20,0.00,4,Rain,297
2013-4-26,57,44,34,37,31,27,93,59,33,30.51,30.45,30.32,10,10,10,12,3,21,0.00,1,,9
2013-4-27,71,53,35,38,33,30,82,50,24,30.49,30.37,30.26,10,10,10,9,4,,0.00,0,,129
2013-4-28,71,57,43,48,39,35,77,55,29,30.26,30.16,30.07,10,10,10,17,10,28,0.03,3,Rain,144
2013-4-29,63,57,51,51,47,42,80,69,62,30.10,30.05,30.02,10,10,10,17,11,24,0.02,7,Rain,144
2013-4-30,70,64,57,52,51,49,82,69,51,30.27,30.17,30.07,10,10,10,17,9,24,0.00,6,,146